Location: Unspecified
(40.7945°N, 0.0000°E)
Time: 06:56:42
(UTC+00:00)

A-11 Canister half - Pass Details

Date: 21 January 2021
Orbit: 1516 x 1684 km, 47.2° (Epoch: 28 February)

Event Time Altitude Azimuth Distance (km) Brightness Sun altitude
Rises 04:45:28 0° 295° (WNW) 4,666 - -28.8°
Reaches altitude 10° 04:48:54 10° 286° (WNW) 3,689 - -28.2°
Maximum altitude 04:56:40 31° 229° (SW) 2,437 - -26.7°
Exits shadow 04:56:50 31° 227° (SW) 2,439 9.7 -26.7°
Drops below altitude 10° 05:04:36 10° 171° (S) 3,758 11.2 -25.2°
Sets 05:08:10 0° 161° (SSE) 4,765 11.9 -24.6°
